Theta_e
295 289 286 287 288 288 291 290 290 291 291 291 290 289 287 287 288 291 292 294 294 292 290 291 291 293 294 295 296 296 297 308 315 316 318 321 322 323 323 324 326 326 325 328 325 327 330 330 328 327 327 327 328 328 329 328 329 328 328 327 327 328 331 330 330 329 331 330 330 329 329 329 330 330 328 329 328 329 329 331 332 331 330 329 330 330
296 287 287 289 290 291 292 292 292 292 292 290 289 289 288 289 287 292 293 295 296 292 290 291 291 292 294 295 296 296 299 310 314 316 318 321 322 323 323 324 323 323 326 325 323 327 329 328 326 325 325 327 324 325 326 327 328 327 327 327 327 328 329 329 330 331 331 330 331 330 329 325 326 326 325 323 324 326 328 328 329 329 328 328 328 329
287 286 289 291 293 293 293 293 293 292 291 291 288 288 287 288 291 294 295 296 297 295 291 292 290 291 293 295 296 295 295 308 317 317 319 321 321 322 322 321 321 322 321 319 322 326 328 326 325 325 325 325 325 325 325 327 327 326 326 326 327 328 328 327 328 328 329 329 329 327 324 325 323 324 325 325 326 327 327 326 327 326 326 327 327 328
285 287 291 294 293 292 292 293 292 293 293 289 287 286 286 290 288 285 292 295 297 294 290 290 290 291 293 294 295 295 295 309 318 319 321 322 322 322 321 321 320 320 318 318 322 324 327 326 324 324 323 323 324 324 325 325 326 326 326 326 327 328 328 327 327 328 327 329 328 324 325 325 324 321 325 326 325 325 325 325 325 325 325 326 326 328
288 292 293 293 293 292 291 292 291 289 287 291 291 289 289 289 290 290 291 294 295 296 296 290 289 287 290 291 292 294 298 310 317 319 321 322 324 324 322 321 321 319 318 319 322 324 325 325 323 323 323 323 323 324 324 325 325 326 326 327 328 327 326 326 327 327 325 325 322 323 322 323 322 322 322 322 321 322 325 322 322 323 323 325 327 325
290 294 296 292 292 292 291 290 291 291 287 288 292 292 292 292 290 292 293 292 288 286 291 289 283 282 283 289 291 289 293 307 315 316 318 319 321 322 319 319 319 319 320 321 323 324 325 325 323 323 322 322 323 324 325 326 326 327 327 328 327 325 325 325 325 326 326 323 321 320 319 318 317 317 318 318 319 319 320 320 321 322 322 323 322 322
290 295 294 293 291 291 291 290 292 293 288 286 288 294 293 293 293 292 291 290 282 281 289 293 281 277 282 291 291 293 293 301 310 314 315 319 320 320 319 318 318 319 320 323 324 325 324 324 323 323 323 323 323 325 326 327 327 327 328 328 327 325 325 325 325 325 324 320 320 320 319 318 317 316 316 318 320 320 319 320 320 320 321 323 322 321
293 293 292 292 292 291 288 287 292 293 289 286 291 294 294 293 292 292 291 290 285 290 293 293 285 279 284 285 290 292 292 295 303 307 312 319 319 318 318 318 319 320 321 321 322 323 324 324 323 322 324 323 324 326 327 327 328 328 328 327 326 326 326 326 325 324 323 319 319 318 317 317 316 316 316 317 318 319 320 319 320 320 319 320 321 321
292 290 291 290 290 289 288 291 293 295 291 288 293 295 293 294 294 293 289 287 286 288 283 285 291 283 280 284 291 293 291 296 301 306 313 317 317 318 318 318 318 319 321 322 321 321 322 323 324 324 323 324 324 326 326 327 327 328 329 328 327 326 326 325 324 323 322 320 319 318 317 316 317 318 317 318 320 318 319 318 318 319 318 320 320 321
293 293 293 293 290 288 293 295 295 295 291 293 294 295 295 295 293 292 287 286 286 285 277 284 289 282 278 283 288 289 290 293 302 309 314 316 317 316 315 316 318 319 321 322 322 320 322 324 324 325 325 324 324 325 327 328 328 329 328 327 326 325 324 323 322 322 321 320 320 318 318 318 317 317 317 317 316 316 317 318 317 317 317 317 318 319
294 300 301 294 291 293 294 295 296 296 297 295 294 293 291 291 290 289 289 285 284 279 280 285 291 287 280 282 288 290 292 291 308 311 315 316 316 316 316 317 318 318 319 319 319 320 322 324 323 324 324 323 324 325 326 327 328 329 328 327 325 325 324 323 323 322 322 322 322 320 319 317 316 316 316 314 314 316 317 317 316 316 316 317 318 317
294 294 293 294 299 297 296 295 296 297 295 295 291 288 288 285 285 285 283 285 278 273 278 287 290 288 282 283 290 294 297 306 311 310 313 313 313 315 315 317 317 317 317 317 317 319 321 321 321 323 323 322 323 324 326 327 328 328 327 326 325 324 323 322 322 321 322 324 324 321 318 316 317 317 315 314 315 316 316 316 316 316 315 315 316 315
289 290 291 294 302 296 295 293 291 291 291 292 290 286 283 276 277 276 277 278 275 275 283 287 289 286 284 287 296 299 300 302 312 314 313 313 313 314 315 315 316 316 316 316 317 319 320 321 321 321 322 322 323 324 326 327 327 327 325 324 324 322 322 322 322 321 322 324 323 320 317 316 317 317 316 316 317 316 316 316 315 314 314 313 315 314
286 290 291 293 296 298 293 289 285 287 287 288 286 283 281 277 275 271 272 273 276 281 286 286 290 284 288 293 299 299 303 309 313 314 315 314 313 314 314 314 314 314 315 316 318 320 320 320 320 321 322 324 324 325 326 326 326 325 324 323 323 322 322 321 320 320 321 322 322 319 317 317 318 316 316 317 317 316 317 317 315 314 313 313 314 313
278 281 285 290 289 295 293 292 290 288 287 288 288 288 284 278 277 273 276 275 275 277 281 289 285 280 284 290 299 302 307 312 314 314 315 315 315 314 315 315 314 314 315 316 318 319 320 320 320 321 323 325 325 325 325 325 324 324 323 322 321 320 320 320 320 320 321 321 320 318 318 318 317 317 317 317 317 317 318 317 316 315 314 315 313 313
285 282 288 293 293 293 293 295 295 292 290 287 290 289 285 283 281 280 275 278 280 278 280 283 281 287 291 300 303 308 310 310 312 313 313 313 314 315 314 313 313 314 315 316 317 318 320 320 321 322 323 325 325 325 324 322 322 322 322 322 321 321 321 320 320 320 322 321 320 318 318 317 318 319 317 317 318 318 319 318 317 315 315 315 314 313
285 282 291 294 295 293 295 296 294 293 283 287 288 283 287 291 289 280 281 284 278 279 278 278 287 290 295 298 300 306 309 310 311 312 313 313 314 313 313 312 312 313 314 315 316 318 319 321 321 322 323 324 324 324 323 321 321 321 320 321 320 319 319 320 319 320 322 321 319 318 318 317 318 318 317 317 317 317 319 318 316 315 315 315 314 315
283 282 291 292 291 294 294 295 295 296 292 289 285 287 292 295 292 285 278 278 275 274 275 282 283 285 284 283 299 303 304 306 308 311 312 312 312 311 311 312 312 313 314 315 316 316 319 320 321 322 323 324 323 322 321 321 320 321 320 320 320 320 320 320 320 320 321 320 318 318 318 318 319 319 318 318 317 317 318 316 315 315 314 314 314 314
289 283 286 291 294 295 297 293 291 293 296 292 290 294 289 279 281 281 281 275 275 274 274 280 285 284 283 287 293 298 303 305 306 308 309 309 310 310 312 314 315 315 315 315 315 315 316 317 319 320 321 323 322 321 320 321 321 321 320 320 320 320 321 321 322 321 321 321 320 320 319 318 319 319 319 319 319 320 318 316 314 314 314 313 313 314
290 281 281 291 294 297 294 289 282 286 293 294 295 292 294 286 280 280 280 281 279 275 274 276 281 279 291 290 294 297 301 306 307 307 307 308 310 311 313 314 314 314 315 314 314 314 314 315 317 320 320 321 321 321 320 321 321 321 321 322 321 321 322 322 322 321 321 321 321 320 318 318 319 319 319 319 319 318 317 315 314 314 313 313 314 313
286 285 279 286 292 294 287 289 288 289 286 287 287 286 291 289 293 288 289 283 279 278 275 275 277 282 288 296 297 298 302 306 308 308 308 309 310 312 313 313 314 314 314 314 313 313 314 315 317 319 321 321 321 321 321 320 320 321 322 322 322 321 322 322 322 322 322 321 321 320 318 318 318 318 318 317 318 317 316 315 315 314 313 313 313 313
284 282 282 283 287 285 290 297 295 295 293 291 288 287 287 287 284 282 279 287 285 279 278 277 274 282 291 303 302 301 303 305 309 309 308 309 310 311 311 312 313 313 314 314 314 315 316 317 318 320 321 320 320 320 319 319 320 319 320 321 321 322 323 322 322 322 322 321 321 319 318 318 318 318 317 317 318 317 317 316 314 313 314 313 314 313
292 286 284 282 283 287 293 297 299 299 298 296 294 290 292 287 285 279 279 281 283 286 286 281 282 282 296 302 304 304 305 306 308 308 308 310 310 311 312 313 313 314 314 314 315 315 316 317 318 318 318 318 318 318 318 318 317 317 318 320 320 320 320 319 319 320 320 319 320 319 319 319 318 318 317 317 318 317 317 316 315 315 314 313 313 313
307 284 283 283 287 291 295 297 298 298 297 294 294 295 292 288 290 284 281 284 283 283 281 280 280 284 295 302 304 306 307 307 308 309 309 310 310 310 311 311 312 313 313 314 312 312 316 317 317 317 316 317 317 317 317 318 318 317 317 317 317 317 318 317 318 318 318 318 319 320 319 319 319 318 318 317 317 317 317 316 316 316 314 313 313 313
288 286 284 279 278 280 284 288 290 295 296 290 289 292 295 295 293 290 288 285 283 283 283 280 276 284 295 302 303 306 306 306 306 308 310 308 308 309 310 311 312 313 313 313 313 314 315 314 315 315 316 316 316 316 316 317 317 317 316 316 316 317 317 317 317 317 318 319 320 319 319 319 319 318 318 317 317 316 316 316 315 315 315 313 313 313
287 285 284 278 274 274 274 275 278 283 287 289 293 293 295 294 291 286 284 280 279 283 285 281 283 290 299 302 303 305 305 305 306 307 308 308 307 307 308 310 311 311 311 312 312 312 312 313 314 315 315 315 315 315 316 316 316 317 317 317 317 317 317 317 317 317 317 318 319 319 318 318 317 317 318 318 316 316 317 316 315 314 315 314 313 313
287 290 286 281 277 277 279 283 288 289 289 286 291 293 293 294 294 289 283 280 280 280 279 286 291 292 295 298 300 302 302 302 303 305 305 306 307 307 308 309 310 310 311 312 311 311 311 311 311 312 313 313 314 314 315 316 317 317 316 316 317 317 317 317 317 316 315 315 316 317 318 317 317 317 316 316 316 316 316 316 316 315 315 315 312 312
289 284 290 290 289 290 289 289 291 292 290 292 291 291 293 292 292 291 286 285 287 281 280 288 295 292 294 298 299 300 301 302 303 303 304 305 306 307 306 304 304 303 303 303 305 307 308 307 308 308 310 311 313 315 315 315 315 315 316 316 317 317 316 317 317 316 315 315 315 316 316 317 318 317 317 315 316 315 315 315 315 315 313 316 314 312
289 283 290 291 290 292 292 292 292 291 291 291 292 292 291 293 293 289 287 290 287 281 283 291 295 293 296 299 300 301 302 302 303 303 302 300 301 301 300 298 297 297 298 298 298 299 300 300 300 301 301 301 302 306 311 314 313 313 314 315 316 317 316 316 317 316 316 315 314 314 314 315 316 315 314 315 314 314 314 315 314 315 315 314 314 315
290 285 292 293 290 290 291 292 293 291 290 291 291 292 293 293 293 293 291 292 292 290 292 292 290 288 292 296 298 299 300 299 297 297 296 297 296 296 295 295 294 295 296 296 297 298 298 297 297 297 298 298 298 299 301 307 312 314 314 314 315 316 317 317 316 315 315 316 315 316 316 316 315 316 315 315 314 313 313 313 314 314 314 315 315 314
292 286 292 292 287 288 291 292 291 292 291 288 290 290 290 292 294 294 293 292 292 290 291 291 288 287 292 295 294 295 296 295 294 292 291 292 293 293 293 293 293 294 295 295 296 295 296 297 296 296 297 297 297 298 299 299 301 305 311 315 316 316 316 316 314 314 314 315 316 315 315 315 316 316 315 314 314 314 314 314 314 314 315 314 314 313
292 285 290 286 283 283 290 290 290 291 290 288 287 287 288 287 287 289 289 292 289 287 289 289 287 285 292 295 293 293 294 292 290 290 290 290 291 291 291 292 292 293 294 294 294 294 294 295 295 295 295 296 297 298 298 299 301 303 307 311 315 314 314 314 315 315 315 315 316 316 315 314 315 315 314 314 314 314 313 313 314 314 314 314 314 312
291 286 284 284 284 282 290 289 290 287 286 284 284 286 287 288 290 292 293 293 292 292 288 286 285 291 293 296 290 289 290 290 290 290 290 290 291 291 291 292 292 293 293 294 293 293 293 293 294 294 295 296 296 297 298 299 300 301 302 302 302 302 301 302 303 305 308 312 315 314 314 314 314 313 313 313 313 313 313 313 312 311 313 313 313 311
293 290 286 288 283 283 287 286 287 281 276 278 289 290 289 288 290 289 287 289 290 289 286 289 288 290 289 289 287 286 287 287 289 291 293 291 290 290 292 292 293 293 294 294 294 294 294 294 294 295 295 296 296 297 298 299 300 301 302 301 301 301 301 300 300 300 299 300 301 304 310 312 312 312 312 312 312 312 311 311 311 310 310 312 313 311
287 287 285 287 283 282 283 283 281 274 277 289 293 290 291 292 292 289 288 288 288 289 290 289 289 289 289 288 287 286 286 288 289 290 291 292 292 292 291 292 293 294 293 293 294 294 294 295 295 295 295 296 297 297 298 298 299 300 300 300 300 300 300 300 299 299 299 299 299 300 302 303 304 307 309 311 310 309 309 309 309 310 310 310 311 311
285 286 284 283 282 283 283 283 275 275 285 289 291 290 292 290 289 290 288 289 290 290 290 288 289 289 289 289 290 290 290 291 291 292 291 293 294 293 292 292 294 295 294 294 293 293 294 294 295 296 296 298 298 298 298 298 299 299 298 299 299 299 299 298 298 298 298 298 298 299 300 301 301 302 304 304 303 304 306 308 310 311 311 310 309 309
291 287 285 284 284 281 280 281 281 286 285 285 283 285 286 283 285 284 283 286 290 289 288 287 288 288 288 290 290 291 293 292 290 291 295 294 294 295 296 296 296 296 295 296 296 296 296 297 296 297 297 297 297 298 298 298 298 298 298 298 298 298 298 298 297 297 297 297 298 299 299 300 299 300 299 299 299 299 301 302 303 304 307 309 308 308
291 286 285 284 282 283 281 278 281 280 278 281 286 290 292 292 290 290 285 283 291 290 289 287 286 287 288 290 291 292 294 290 286 287 293 296 296 295 296 297 297 297 298 297 298 298 298 297 296 297 296 296 296 297 298 298 297 297 296 296 297 297 297 297 297 297 297 297 298 298 298 298 298 298 298 298 298 298 298 298 299 299 302 303 303 303
292 290 286 285 282 280 278 275 276 274 276 283 285 289 291 292 293 291 284 281 287 290 290 288 287 287 288 288 290 291 290 285 285 288 293 295 296 296 295 296 296 297 295 295 295 296 296 296 296 296 296 296 295 296 297 298 297 296 296 296 296 296 296 296 296 297 297 297 297 297 297 298 298 297 297 297 297 298 297 298 298 299 299 299 300 301
287 285 285 284 281 281 279 276 276 280 280 286 289 289 291 292 294 288 278 280 289 290 290 289 288 288 289 290 290 290 288 284 285 288 294 294 294 296 293 293 294 293 293 294 295 295 294 295 295 295 295 295 295 296 296 296 296 296 295 295 295 295 295 295 296 297 298 298 297 298 298 298 298 298 298 297 297 297 297 297 297 297 298 298 298 298
281 282 283 281 281 281 281 280 282 282 285 288 288 290 291 292 291 282 276 283 290 290 290 289 289 290 292 292 293 287 289 291 291 293 295 295 294 294 295 295 293 293 293 294 294 296 295 294 294 294 294 295 295 296 296 296 295 294 295 294 294 294 295 296 296 297 297 297 297 297 297 297 297 298 298 298 298 298 297 297 297 297 297 297 298 297
279 279 281 281 280 279 278 277 279 280 285 288 290 291 291 288 279 275 285 292 291 291 292 293 292 293 294 292 291 290 291 293 294 294 294 294 294 294 293 293 293 293 294 295 295 295 294 294 294 294 294 294 295 295 295 295 294 294 293 293 293 293 294 295 295 295 295 296 296 296 296 296 296 297 298 298 297 296 296 297 297 297 297 297 296 296
281 278 278 278 279 279 278 275 275 274 282 289 289 287 288 282 282 290 291 291 293 292 291 291 292 291 291 289 290 289 289 289 289 289 289 290 291 290 291 291 291 291 292 293 293 294 294 293 293 293 293 294 294 294 294 294 293 292 292 291 292 294 294 294 294 294 294 294 294 295 295 295 295 296 297 296 295 295 294 295 295 295 295 295 295 295
284 279 279 279 281 275 275 275 276 283 286 289 287 282 285 287 290 291 291 289 291 292 291 290 290 290 290 289 288 288 289 289 289 289 289 289 289 289 290 290 290 290 291 292 293 293 294 292 293 292 292 293 293 293 292 293 292 291 291 290 292 293 294 293 293 293 293 293 293 293 294 295 295 295 294 294 294 294 293 293 294 293 294 293 293 292
285 281 281 279 282 278 279 282 286 288 287 288 288 287 288 290 291 291 291 290 290 290 292 291 290 291 290 290 289 288 288 288 288 290 289 288 288 289 289 289 289 289 289 290 291 292 292 292 291 292 292 292 292 292 292 292 292 291 290 290 292 292 291 291 291 291 291 291 291 291 293 293 293 293 293 293 293 293 292 292 292 292 292 292 292 292
288 289 289 286 283 288 288 288 288 287 288 288 289 290 289 290 291 291 291 290 291 292 292 291 291 291 291 290 289 289 289 288 288 288 289 290 290 290 291 290 290 290 289 290 290 291 291 291 290 290 290 290 291 291 291 291 291 290 289 290 290 290 290 290 290 290 289 290 290 290 290 290 290 290 290 291 291 292 292 291 291 291 291 290 290 290
287 287 284 283 285 284 279 287 286 286 287 288 289 290 291 292 291 292 291 291 291 292 292 293 292 292 292 292 291 290 290 290 290 290 290 291 290 290 290 290 289 289 289 289 289 291 290 290 290 290 290 290 289 289 290 290 290 290 289 289 290 290 290 290 289 289 289 288 289 289 289 288 289 289 289 288 289 290 291 290 289 289 289 288 288 288
282 287 284 283 282 281 282 285 286 287 287 289 289 289 289 290 291 291 291 291 291 292 293 293 293 292 292 291 291 290 289 289 289 289 290 290 290 290 289 289 289 290 290 290 290 291 290 290 290 290 291 290 289 290 290 290 289 290 290 289 290 289 289 289 288 288 288 288 288 288 289 288 288 288 288 288 288 288 288 289 289 289 289 289 289 288
284 286 279 282 281 283 286 286 286 286 286 286 288 289 290 290 290 290 291 291 292 291 291 291 291 291 290 289 289 289 288 287 287 289 290 290 291 291 291 290 290 290 290 289 289 289 289 289 289 289 289 289 289 289 289 289 289 290 289 290 289 289 289 289 288 287 288 288 288 288 288 289 288 288 288 288 288 288 288 288 289 289 289 288 289 289
284 281 284 284 281 280 280 283 285 281 279 283 285 287 288 290 291 290 290 290 290 290 290 289 289 289 289 288 288 288 287 287 287 288 288 289 289 288 288 288 288 289 290 290 290 289 290 288 288 288 289 289 289 289 288 288 289 289 290 289 289 289 289 289 287 287 288 288 287 287 288 289 288 288 288 288 288 288 289 288 290 290 288 288 290 290
282 282 279 278 280 278 283 287 286 286 286 286 286 287 288 289 289 289 289 288 289 289 289 288 288 287 287 287 288 288 287 287 286 287 287 287 286 286 286 287 287 288 289 290 290 289 288 288 290 288 289 289 289 288 288 288 289 289 290 289 289 289 289 288 288 287 287 286 286 287 288 287 287 288 288 288 287 288 287 288 288 290 290 290 290 290
Wind_Speed
3 5 7 11 7 4 4 6 7 5 5 5 5 4 6 5 7 6 7 7 3 2 7 11 9 13 14 14 12 8 5 11 16 13 10 11 13 12 12 12 13 12 12 8 9 8 11 14 12 12 11 11 10 7 5 6 7 4 6 7 9 8 9 8 7 6 6 6 5 3 4 4 4 5 3 3 3 5 4 4 4 3 3 3 3 3
4 7 11 7 5 8 8 7 6 5 5 6 7 7 9 6 8 9 8 4 2 4 7 10 10 15 15 14 13 7 9 11 17 18 15 14 13 13 15 14 14 11 7 7 9 10 12 13 16 14 13 16 16 12 12 11 11 9 8 8 8 6 6 7 9 8 7 5 5 6 6 3 4 5 5 3 3 3 3 4 4 4 4 4 3 3
3 11 9 9 10 8 7 6 6 6 7 7 7 7 7 9 8 13 6 5 2 3 9 9 11 15 15 14 13 9 7 10 17 22 20 18 15 12 13 14 15 13 10 7 9 10 11 16 15 12 12 14 19 18 14 12 10 9 8 7 7 7 7 7 6 6 7 4 5 5 3 5 3 2 4 5 4 3 4 4 4 3 3 3 2 3
5 7 16 14 6 6 7 6 5 5 4 5 5 4 8 7 3 8 6 4 3 3 7 5 12 13 11 7 11 5 5 6 16 19 18 18 19 18 20 20 16 13 12 10 10 12 12 14 13 12 13 11 9 10 11 10 10 8 8 8 7 7 7 7 7 6 5 4 4 3 6 5 5 5 4 5 4 4 4 3 1 2 3 3 3 2
11 16 1 4 5 8 9 8 6 4 7 6 7 8 8 8 6 6 8 6 7 9 4 3 5 4 3 6 8 4 3 8 12 15 14 9 11 12 11 10 11 14 13 12 12 11 11 13 14 15 13 11 12 12 13 12 10 9 11 10 10 8 8 7 6 5 3 5 6 6 5 6 7 5 6 6 4 4 3 3 2 2 3 3 3 2
12 19 3 4 8 8 7 9 8 6 6 6 7 11 12 7 6 7 7 5 6 8 5 7 3 5 4 2 11 3 3 10 8 14 13 12 11 14 14 12 10 10 9 12 12 11 11 11 12 13 14 12 10 12 12 11 11 10 9 9 8 7 7 7 5 4 5 7 9 9 9 8 7 6 6 7 7 4 5 4 1 3 4 4 4 3
10 8 6 9 8 8 9 9 10 7 8 6 6 9 8 7 4 4 7 3 4 1 5 3 6 2 4 1 2 0 4 9 6 10 12 14 14 12 12 10 11 13 12 10 10 11 10 10 12 11 12 12 13 12 10 9 10 9 10 9 8 7 6 5 5 5 5 7 8 9 9 8 9 8 4 5 5 6 3 4 5 4 4 5 5 3
5 10 6 6 7 9 6 7 8 11 7 6 4 5 4 1 4 5 6 1 6 3 7 3 2 3 0 3 0 1 8 10 10 7 7 11 13 12 12 12 14 14 10 11 11 11 10 11 13 13 11 12 12 11 10 10 9 10 11 10 8 6 6 6 5 5 5 8 8 8 8 8 8 8 6 6 5 3 4 6 5 4 3 2 3 4
4 6 7 7 6 6 8 11 11 9 7 5 5 6 4 4 6 6 4 6 4 2 9 6 4 3 1 5 0 1 5 8 10 13 12 13 13 13 14 16 15 15 14 16 14 15 14 17 18 18 15 11 13 13 12 12 10 10 10 9 8 8 7 6 6 6 4 7 9 9 8 7 5 6 6 5 5 5 5 6 4 4 3 4 3 3
3 7 9 10 7 9 11 14 10 10 7 7 7 4 2 2 4 4 4 4 1 0 4 6 1 1 2 5 6 4 4 8 6 11 15 15 16 15 15 15 16 14 15 15 17 14 14 15 13 14 16 15 15 14 14 12 10 10 10 11 11 10 7 6 5 5 4 6 8 8 7 8 6 7 6 6 6 5 4 6 5 4 5 5 4 3
10 9 8 4 7 9 9 11 11 11 12 3 2 0 3 1 2 2 3 2 2 4 7 6 1 2 1 2 1 1 1 6 9 7 9 12 11 13 14 16 17 17 15 14 13 13 14 14 12 11 14 14 12 12 14 13 12 11 10 11 12 10 7 6 6 5 6 6 6 7 8 9 9 9 9 8 5 5 5 7 5 5 5 5 5 4
7 6 4 3 9 4 6 2 3 8 4 3 1 3 1 5 3 1 3 2 3 3 6 6 5 6 2 3 5 5 2 14 19 18 17 14 15 17 14 14 15 15 14 13 11 11 9 7 7 9 11 12 13 12 13 12 12 11 9 9 10 8 7 6 6 5 6 6 6 6 8 9 9 10 9 9 8 7 7 6 6 4 5 4 5 4
5 7 4 6 3 7 2 3 5 3 3 1 0 2 2 3 2 2 2 1 2 5 3 2 6 2 0 1 4 9 10 10 17 21 20 17 16 15 14 14 13 13 12 11 10 10 9 10 11 12 12 12 14 15 15 13 11 10 8 9 11 10 8 8 6 6 6 6 6 8 8 8 8 8 9 8 8 6 7 6 6 5 6 4 5 4
7 5 3 4 3 1 6 4 2 2 2 2 3 3 2 2 0 1 2 1 1 5 6 4 1 1 1 2 7 9 6 9 10 9 13 19 19 17 16 14 13 12 13 12 12 13 12 12 11 11 12 13 11 11 11 11 10 9 8 8 9 9 6 6 5 4 5 4 4 6 8 8 7 8 8 7 8 6 7 6 6 5 6 5 4 3
1 7 6 1 2 2 4 6 9 5 1 5 2 8 7 6 3 2 2 1 4 6 4 4 3 2 4 2 8 5 6 7 15 17 14 9 9 10 11 12 12 13 10 12 13 14 16 12 11 11 10 10 10 10 10 9 8 7 7 8 7 5 5 5 5 4 4 3 2 4 5 6 5 7 7 7 7 7 7 6 6 5 5 6 3 5
5 6 7 6 6 4 6 5 5 3 1 3 2 5 5 5 6 2 4 3 1 0 1 1 1 0 4 2 4 6 11 9 10 15 17 15 13 11 9 11 11 12 11 12 11 10 10 10 8 7 9 9 8 9 7 6 6 5 5 6 6 7 6 5 4 4 4 3 2 4 5 6 6 6 6 6 6 6 7 6 7 5 5 6 5 3
1 3 4 6 1 5 9 4 3 6 2 2 2 3 8 6 7 3 2 0 4 3 0 0 3 3 1 7 11 6 13 10 10 9 13 16 15 12 10 8 8 8 9 10 9 10 9 8 8 8 8 7 7 8 8 5 5 5 5 6 4 4 3 3 3 3 4 3 3 4 5 5 6 7 7 7 6 6 6 6 6 6 5 5 5 4
2 6 6 3 7 5 3 3 3 7 7 2 1 7 1 3 5 4 4 1 2 3 3 1 6 4 1 1 8 4 12 7 7 10 10 8 8 10 8 9 9 8 7 5 4 5 8 9 9 7 6 5 5 5 5 5 4 5 4 4 5 4 5 4 4 3 4 3 3 4 6 6 7 7 7 6 6 6 7 6 5 6 6 6 5 5
4 6 7 3 3 4 3 3 3 3 1 9 6 3 2 1 2 3 4 0 1 0 2 2 1 1 2 3 3 3 13 10 7 6 8 9 6 6 7 8 6 4 3 5 6 5 5 5 4 2 2 1 3 4 3 4 5 5 4 4 4 5 5 5 4 4 4 5 5 5 7 7 6 6 6 6 7 7 8 8 7 7 6 5 5 6
1 2 6 3 1 1 3 4 2 7 8 2 1 2 1 5 3 3 4 4 6 2 2 2 3 2 1 0 2 4 2 10 11 10 10 7 7 7 6 7 7 6 4 3 2 4 5 4 3 3 4 6 6 5 5 4 4 5 5 6 5 5 6 5 5 5 5 6 6 5 5 5 6 7 7 7 8 7 9 9 8 7 6 7 5 5
1 2 4 3 5 1 1 2 2 4 4 6 4 4 1 1 2 4 1 2 4 5 3 3 1 1 2 4 5 4 2 4 10 12 8 6 5 5 4 4 4 5 5 7 8 8 8 7 7 8 7 7 8 7 7 5 4 4 5 6 7 7 6 6 6 6 7 7 7 7 7 7 6 7 8 6 7 8 8 8 8 8 7 5 5 5
1 1 4 4 2 2 4 7 7 9 8 3 3 2 4 1 3 2 4 2 3 4 3 4 2 1 3 4 4 9 7 6 4 9 9 7 7 6 6 6 6 6 8 8 8 8 7 7 7 8 8 7 7 7 8 7 6 5 5 6 7 7 6 5 5 6 7 5 4 6 5 7 7 7 6 7 7 8 8 8 8 6 6 6 5 6
1 2 2 2 3 4 7 4 11 12 13 9 5 3 2 1 5 5 3 4 3 1 4 3 7 2 2 4 5 9 8 8 5 0 7 7 9 9 8 8 8 8 7 6 4 3 4 7 8 9 10 9 9 9 10 10 10 9 8 7 5 5 8 9 9 10 6 6 7 10 8 7 6 8 8 9 7 9 9 9 7 7 8 7 6 5
3 1 1 3 3 2 1 4 10 7 7 7 5 4 4 3 1 4 3 5 6 1 2 1 2 2 3 3 5 8 8 7 8 2 9 8 8 9 9 9 8 8 7 7 6 6 6 8 9 9 8 7 7 8 9 9 10 10 8 7 6 3 6 8 10 8 10 11 10 6 8 9 5 5 8 9 7 8 7 7 7 7 8 7 6 6
1 3 2 1 1 3 1 3 4 6 9 3 1 4 3 3 2 1 3 2 1 3 6 7 4 2 1 1 3 5 8 8 6 6 5 9 7 8 10 9 8 8 9 9 8 9 10 11 11 9 8 7 6 5 5 6 7 9 8 5 3 2 5 8 11 10 9 12 13 7 3 5 5 6 5 3 3 5 5 6 6 5 7 6 6 5
4 1 1 2 3 4 3 4 3 4 6 2 2 4 7 9 8 3 1 2 3 2 3 3 3 1 3 4 7 7 8 10 6 4 6 6 8 8 8 9 9 10 10 10 9 11 10 8 9 8 7 5 5 6 6 7 8 8 8 7 6 4 6 5 4 7 7 8 11 10 9 6 5 5 3 3 4 6 7 6 6 5 5 7 7 5
2 0 2 1 3 2 2 2 3 4 4 5 1 9 5 4 6 4 3 4 2 1 6 3 10 10 7 6 7 7 7 10 8 3 6 8 9 9 8 9 9 9 9 9 9 8 9 10 8 5 3 3 4 5 5 5 6 7 7 8 6 4 5 6 7 7 7 6 8 7 8 8 8 6 3 3 4 3 5 7 6 6 6 4 5 5
2 4 3 3 0 2 5 3 4 3 8 6 8 3 8 7 4 9 5 0 1 6 3 0 11 13 7 8 8 8 9 7 4 5 6 6 6 7 10 12 13 13 12 11 11 11 11 10 9 8 6 5 5 6 6 5 5 6 7 8 6 6 6 5 7 6 7 8 8 9 8 7 7 4 5 3 3 3 3 2 4 4 3 2 4 4
3 2 5 3 6 10 4 3 5 7 5 5 10 7 7 6 11 7 1 2 1 3 7 8 8 11 7 8 10 7 6 8 6 6 8 9 10 11 12 13 12 11 13 14 11 9 9 10 8 9 9 9 10 10 8 8 8 7 6 6 7 6 5 5 6 6 6 6 6 4 2 3 6 4 3 4 4 4 3 3 2 3 4 3 3 3
4 2 2 2 4 11 14 12 2 10 7 9 8 7 4 11 7 11 8 9 9 8 9 12 11 8 4 5 6 6 6 9 10 10 10 11 12 12 12 13 11 10 12 12 12 8 8 10 10 11 12 12 12 11 10 8 7 6 6 6 6 6 4 5 5 6 5 5 6 6 4 4 3 4 3 4 4 3 2 2 3 3 4 4 4 4
2 1 3 2 4 7 10 11 7 12 13 11 9 10 9 4 9 7 9 9 14 12 9 9 11 8 5 4 6 7 7 8 11 13 11 8 9 12 13 13 12 12 11 9 9 9 9 11 12 13 14 13 12 11 9 8 7 7 8 7 7 7 6 5 6 6 5 4 4 5 4 4 4 4 4 3 2 2 3 3 3 3 3 3 4 5
4 0 3 3 4 3 6 6 5 8 13 12 12 12 12 5 7 1 5 3 7 8 7 8 6 3 1 5 7 8 10 13 12 10 9 7 7 10 13 11 10 10 9 9 9 9 10 11 13 13 12 12 12 12 10 10 10 10 11 9 8 7 6 7 7 7 6 5 5 5 5 5 4 4 3 3 2 4 3 3 3 3 2 2 3 3
2 3 3 2 5 0 3 6 6 1 5 7 8 10 10 3 2 3 4 6 4 14 11 7 4 2 1 1 9 10 10 11 11 8 8 9 8 10 11 11 10 9 8 8 9 10 10 10 11 10 10 11 11 11 10 11 13 13 12 12 10 11 12 11 10 10 9 6 4 5 4 3 3 3 3 3 3 4 3 4 3 4 4 4 3 2
4 6 4 1 4 2 5 8 3 5 4 1 2 6 4 3 1 8 3 4 3 2 3 5 8 7 9 8 8 10 11 9 8 9 8 6 8 10 11 10 9 8 7 7 8 9 7 9 10 10 10 9 8 7 8 11 12 11 10 10 9 11 11 11 11 12 12 12 11 8 5 4 3 3 4 4 5 5 3 3 3 3 3 3 2 3
4 5 4 2 4 2 2 6 4 3 1 0 3 7 8 11 10 15 9 7 6 12 13 13 11 11 9 9 8 9 8 10 11 10 9 9 8 8 9 9 9 9 8 8 10 9 8 9 11 11 11 10 8 6 9 11 10 10 11 10 11 9 10 10 11 10 11 11 11 10 10 10 10 10 7 5 4 3 3 2 4 4 1 1 2 0
4 5 4 3 2 1 3 2 2 2 1 2 1 5 5 2 5 8 12 8 7 6 12 12 12 11 11 10 6 6 12 10 11 9 7 7 6 5 6 7 7 7 8 7 9 9 10 11 10 10 9 8 9 10 10 9 8 12 10 10 11 10 10 10 11 11 11 11 10 10 9 9 9 9 8 8 8 8 8 7 6 7 7 7 8 8
6 3 4 3 0 3 1 3 3 0 1 5 4 5 4 2 3 1 5 3 4 2 5 13 11 11 10 9 10 8 8 10 12 8 7 7 6 6 6 6 6 7 7 7 9 10 8 7 7 4 5 7 8 9 8 7 9 10 11 12 10 11 12 12 13 11 10 10 10 10 10 9 10 8 7 7 9 9 8 8 8 6 1 1 4 5
4 3 2 4 1 4 5 4 2 1 4 1 2 3 2 3 3 4 3 2 2 4 4 13 13 11 11 9 7 10 6 13 9 3 2 4 4 5 4 4 4 3 3 4 3 3 3 3 4 5 7 9 10 8 6 7 9 10 11 10 10 12 12 13 12 10 11 10 10 9 9 9 9 10 10 10 11 10 8 8 6 5 4 4 4 4
7 6 5 6 2 3 3 4 2 3 1 1 5 4 4 6 5 2 4 1 1 6 7 10 13 10 12 14 11 7 3 6 4 3 2 3 5 4 5 5 4 2 3 3 4 6 6 6 6 7 9 11 11 8 7 8 11 12 12 11 11 11 12 11 10 10 10 9 9 8 8 8 9 9 9 9 9 8 9 8 7 6 5 5 4 4
10 6 6 6 4 2 3 3 1 0 1 1 3 5 4 4 2 2 1 4 5 7 9 8 14 13 10 7 5 2 6 11 7 5 5 5 4 3 5 6 7 7 7 5 5 5 6 6 8 11 12 12 9 6 8 8 11 12 12 11 11 13 11 10 8 8 9 9 10 10 11 10 10 10 9 9 8 8 7 6 7 8 8 7 7 7
4 4 6 2 2 4 5 2 2 0 2 2 3 6 6 4 0 5 6 3 5 7 7 6 9 9 6 5 2 3 3 7 10 10 8 6 5 3 2 3 5 7 7 6 6 7 8 9 10 11 10 8 8 8 8 9 11 12 11 11 12 12 10 9 9 9 9 10 10 11 12 11 11 12 11 10 9 7 7 7 8 8 8 8 8 8
4 2 2 3 5 2 1 4 2 0 0 4 7 4 3 1 2 5 1 1 6 7 6 6 7 5 4 5 8 9 9 11 10 9 7 5 5 4 6 6 7 8 7 7 7 8 8 9 10 11 11 10 10 10 9 11 13 12 11 12 13 10 7 8 8 8 8 9 9 9 9 9 9 9 8 9 9 10 10 11 10 9 9 8 8 10
2 2 1 1 1 1 3 3 3 1 2 9 12 3 4 2 1 1 3 6 4 7 7 5 5 8 11 9 9 10 11 11 10 9 8 7 8 7 7 7 8 8 7 8 8 7 9 9 10 10 9 8 9 9 9 12 13 12 12 13 10 8 8 8 8 8 8 7 7 6 6 6 7 7 6 7 7 7 8 7 8 8 8 9 9 10
0 2 1 1 0 1 2 2 1 2 5 10 2 3 2 1 2 3 8 7 6 6 8 9 8 7 11 12 11 10 11 12 10 9 9 8 7 6 6 6 6 6 6 6 6 6 8 8 7 8 7 7 8 8 9 11 10 10 10 7 4 6 7 7 6 6 6 6 5 5 5 5 5 5 5 5 5 5 5 6 6 6 6 6 6 6
6 2 1 4 3 1 2 3 0 1 2 4 6 6 4 5 6 7 10 7 8 7 5 10 9 8 9 11 11 10 9 6 8 8 9 6 6 7 6 6 5 5 5 6 6 7 7 8 7 7 7 6 7 7 7 7 9 8 6 2 4 5 5 4 4 4 5 4 4 4 4 4 4 3 3 3 4 4 5 5 4 5 5 4 5 5
3 7 7 9 5 9 8 4 3 3 5 7 7 5 6 6 7 8 10 10 7 6 7 10 9 9 8 6 11 8 8 7 8 7 7 7 7 6 5 4 4 4 6 6 5 6 6 6 6 6 6 6 6 6 5 6 7 6 2 1 4 4 4 4 4 4 4 4 4 4 3 4 3 3 3 3 2 2 1 1 2 3 4 4 4 4
1 1 4 6 4 3 3 1 4 4 4 7 7 7 7 8 8 7 9 8 8 8 10 9 10 9 9 9 9 9 7 6 8 7 6 6 6 6 5 5 4 5 6 5 4 5 6 6 6 5 5 6 4 4 4 4 4 4 3 3 3 3 3 4 4 3 3 3 3 2 2 3 3 3 3 3 3 3 3 3 3 3 3 3 5 5
3 1 8 3 4 5 3 4 3 3 3 2 5 7 7 8 8 7 7 7 8 8 8 8 8 8 6 8 6 8 6 5 7 5 5 4 4 4 4 5 7 7 5 5 5 6 6 6 5 4 5 5 3 3 3 3 3 3 4 3 3 3 3 4 3 3 3 3 3 3 2 3 3 3 2 3 2 4 4 4 3 3 4 5 5 5
1 2 1 1 5 5 7 4 5 5 6 4 4 4 5 6 8 7 7 8 8 10 9 7 5 6 7 7 7 8 8 5 5 6 6 4 4 3 3 4 6 7 5 5 5 5 5 4 4 3 4 3 1 1 3 3 3 3 4 3 3 4 4 4 4 4 4 4 3 4 3 4 3 3 4 3 3 3 3 4 5 4 5 4 3 3
5 4 1 7 7 4 5 6 5 5 1 1 3 3 3 4 8 8 6 7 7 8 8 9 6 5 5 6 8 8 9 6 5 6 6 5 5 6 6 3 3 4 4 4 4 5 5 4 4 3 2 2 1 2 4 3 2 2 2 3 2 3 3 2 3 4 4 4 4 3 4 4 5 4 4 4 5 5 5 4 6 5 4 5 7 7
4 3 4 5 7 4 4 8 3 6 6 5 6 3 4 3 5 7 6 6 5 5 7 8 8 7 6 4 5 10 7 7 6 7 8 6 5 4 4 5 4 1 3 4 4 3 4 3 1 2 2 1 2 4 3 3 2 1 0 0 0 1 1 0 0 1 4 3 4 3 3 3 4 5 4 5 5 5 5 6 3 6 8 7 7 8
Wind_Direction
131 195 223 224 230 224 249 224 224 224 250 271 292 281 258 255 274 268 267 266 196 232 234 239 229 234 234 232 234 226 86 119 134 151 153 156 155 157 157 157 155 159 163 163 94 109 111 106 97 95 84 88 102 114 162 162 174 124 148 143 153 160 159 161 165 169 166 165 170 145 184 193 166 165 155 151 154 166 170 166 170 166 166 163 153 145
129 208 235 231 212 212 225 227 235 255 246 238 254 270 278 262 272 263 271 284 238 178 261 238 222 237 229 232 232 214 114 141 145 154 165 165 163 162 154 149 152 150 160 129 103 117 121 108 105 106 119 134 127 159 182 185 181 165 158 164 163 162 161 173 170 172 174 179 180 165 182 163 134 138 137 139 153 166 152 157 158 162 161 161 152 139
196 225 241 229 217 216 232 229 218 207 236 247 228 253 277 270 260 274 267 246 220 186 259 246 206 236 230 225 234 216 159 171 158 164 172 161 159 158 152 144 152 161 155 104 113 119 121 117 118 124 138 145 154 171 173 183 168 164 165 168 172 169 168 178 179 165 173 177 176 170 172 143 129 112 143 140 146 145 142 158 163 162 155 135 112 133
280 272 234 228 205 203 245 241 233 237 248 237 262 269 250 258 277 298 288 273 270 181 266 229 209 230 234 237 244 243 157 170 173 167 163 163 158 161 163 162 158 151 138 122 128 132 132 130 127 129 141 151 136 145 170 185 180 163 168 174 172 181 176 179 188 178 183 172 160 135 139 131 128 143 119 108 116 110 110 140 117 114 134 119 125 137
223 249 118 194 205 199 227 244 235 222 258 240 222 234 247 254 248 234 279 314 305 305 209 186 182 243 271 219 254 271 106 144 173 165 160 152 147 143 127 138 146 141 131 132 130 137 144 137 135 140 146 143 151 165 176 182 175 176 180 177 176 179 180 184 179 185 184 118 102 107 97 100 82 72 95 100 87 109 122 107 106 125 102 125 137 140
249 255 192 173 208 212 217 249 236 178 240 265 234 216 224 220 233 263 275 349 357 319 341 131 138 236 304 279 233 289 69 141 164 154 154 137 140 147 141 124 110 106 126 134 138 142 143 132 130 138 146 151 163 171 180 177 178 176 178 178 171 174 180 174 183 188 160 152 138 137 136 133 128 127 127 134 146 142 139 140 107 77 118 123 118 114
232 254 153 211 205 217 219 226 239 163 221 229 265 200 200 191 215 283 295 43 310 336 279 103 143 244 334 158 196 267 113 140 150 158 147 145 151 143 131 132 117 124 131 127 125 135 138 133 129 135 153 159 163 175 174 177 181 177 178 179 172 174 174 172 187 182 169 147 147 146 145 143 146 145 169 151 153 149 149 116 109 120 111 120 123 133
215 241 211 210 208 216 216 243 238 168 191 235 237 191 189 162 269 271 283 247 240 247 290 33 128 135 345 286 228 198 98 128 141 142 133 147 139 131 131 120 127 133 137 129 129 133 144 142 154 157 165 166 166 169 172 181 183 174 180 179 171 174 173 181 185 176 182 146 143 138 140 145 145 149 156 152 152 137 131 111 118 100 67 69 97 106
190 237 214 216 209 206 211 221 236 174 185 216 238 201 246 229 250 258 276 272 257 338 289 319 360 69 275 271 308 63 76 105 152 143 147 142 135 130 124 130 131 135 138 138 148 165 160 163 177 161 165 165 163 172 176 185 184 177 176 171 166 177 178 184 181 169 188 154 148 145 143 140 148 137 137 136 134 133 121 105 81 85 81 74 60 67
272 215 232 217 168 213 224 231 210 173 204 257 211 175 196 224 242 239 243 276 327 278 278 283 20 111 289 282 334 348 96 134 146 149 148 146 144 134 130 130 136 140 143 157 166 163 173 180 180 165 151 159 173 174 178 183 185 185 172 168 171 179 178 176 168 160 178 160 144 141 144 140 140 128 127 131 135 125 118 106 103 99 91 92 73 60
254 271 254 216 209 208 203 214 184 183 206 180 136 198 267 266 278 323 230 153 81 227 259 237 262 129 290 277 245 57 225 154 110 111 128 130 120 129 134 140 148 152 157 165 168 178 181 185 168 159 159 163 171 176 177 179 186 191 182 171 171 175 167 167 166 163 177 160 145 144 145 140 140 139 136 130 125 124 112 117 120 110 108 98 103 90
282 274 271 228 226 210 163 209 221 191 189 160 126 179 280 321 28 16 326 85 133 262 259 235 180 138 152 297 313 267 296 147 145 152 153 145 141 143 144 147 150 153 161 167 169 187 187 178 158 155 159 167 174 178 182 182 185 191 186 169 168 163 163 167 161 172 174 155 146 142 145 143 146 145 144 141 146 144 133 132 131 125 100 91 91 90
302 258 231 267 216 138 186 210 306 23 37 146 134 49 121 277 35 313 359 230 192 184 246 219 131 49 198 219 286 315 313 181 155 155 157 145 145 145 146 149 154 158 162 168 179 175 183 186 173 177 176 171 178 184 182 181 183 187 185 180 172 169 163 168 165 174 165 147 145 148 148 146 147 145 143 143 141 143 135 137 129 122 112 105 86 84
272 276 293 269 268 183 120 167 298 350 309 128 189 157 110 184 285 221 271 220 309 283 255 260 263 156 252 306 356 330 340 137 128 125 130 144 149 149 149 151 156 161 166 174 177 179 182 190 187 185 181 179 175 180 180 181 183 185 185 184 182 170 155 153 159 160 155 141 147 152 150 151 150 148 145 144 141 140 135 137 135 133 135 124 131 125
294 317 295 202 284 214 133 171 180 182 165 217 152 153 184 148 162 218 216 200 211 202 282 307 118 227 100 266 314 335 53 109 125 121 116 117 121 128 138 146 155 164 176 183 187 183 175 188 189 186 180 176 175 178 181 183 184 179 178 176 174 155 156 150 152 148 143 123 138 144 144 146 148 146 141 138 137 136 135 137 131 131 127 120 138 132
200 213 251 214 206 181 200 204 166 113 278 245 178 82 92 230 140 181 203 144 216 207 15 20 113 255 113 238 339 68 76 70 93 113 123 133 142 144 149 162 167 174 183 189 186 185 176 180 186 186 184 176 169 176 179 174 169 170 169 172 176 169 157 148 146 149 141 117 128 143 147 155 150 143 131 123 125 129 134 136 136 145 139 137 134 131
252 257 268 308 334 191 217 158 220 123 158 268 95 174 211 186 121 84 25 52 104 47 271 237 42 350 2 12 7 43 87 93 94 105 126 143 154 157 161 163 174 191 190 187 182 176 176 182 191 193 185 171 161 172 182 163 155 147 143 163 163 138 121 116 125 130 123 104 133 161 153 150 153 143 138 139 134 130 133 135 139 139 144 135 134 138
178 253 289 326 314 281 200 219 194 175 151 83 95 240 142 88 104 134 207 347 69 159 249 54 149 188 75 249 312 46 88 82 111 133 140 147 158 152 161 167 178 186 192 189 174 170 180 188 190 186 185 182 155 146 149 132 125 135 130 144 142 130 124 110 115 115 114 115 159 159 159 162 154 138 129 129 123 120 122 124 123 123 132 146 148 136
173 269 288 254 239 293 328 74 4 322 322 160 202 203 114 282 248 320 91 84 108 244 247 356 4 347 128 170 203 200 131 133 123 123 132 150 155 153 164 167 157 146 144 168 170 162 170 188 189 183 186 64 70 81 83 88 91 102 109 106 112 117 116 127 132 137 127 147 169 169 162 151 130 122 119 113 116 124 128 134 139 144 148 140 134 126
70 215 295 303 150 188 19 60 0 301 319 321 41 7 148 99 154 120 201 177 115 211 67 297 46 186 291 215 238 246 95 139 134 147 157 167 167 164 147 151 151 153 161 153 100 60 45 44 52 49 41 44 51 60 60 66 71 88 107 110 103 102 115 120 134 144 156 173 168 165 145 127 128 122 121 127 126 137 138 142 144 143 145 155 140 140
276 123 239 271 308 341 35 339 155 66 26 352 41 340 358 54 207 105 110 126 160 161 176 166 186 280 284 281 259 216 119 180 154 149 146 143 131 122 112 107 99 72 53 48 48 49 45 36 32 30 39 51 60 68 70 64 82 105 108 109 111 118 126 142 159 158 170 170 168 152 136 130 126 128 119 119 130 137 140 145 147 154 154 135 143 144
51 63 199 296 359 50 160 246 96 88 80 67 130 142 202 135 116 162 259 354 99 101 179 133 220 261 272 338 11 62 10 328 190 142 132 116 97 87 71 64 66 74 66 70 71 72 73 59 44 42 50 53 58 56 60 44 61 52 74 92 94 112 145 157 169 159 167 166 139 112 107 102 120 113 105 119 139 141 148 152 153 151 142 146 155 151
147 181 99 295 212 179 164 126 106 101 91 78 56 351 347 139 98 95 145 252 43 66 103 142 116 267 288 324 50 66 51 352 301 327 109 98 85 82 76 69 59 61 74 73 65 67 90 98 75 65 62 61 62 60 66 70 66 58 63 99 116 104 62 40 33 354 5 46 69 83 81 78 103 125 134 138 154 154 156 155 151 153 150 151 157 159
89 52 18 295 309 316 331 120 80 66 70 41 9 6 29 18 257 183 171 189 143 137 61 25 91 228 298 354 71 78 66 34 327 8 106 98 91 81 77 77 73 66 57 48 44 58 65 67 71 66 61 65 71 77 79 82 82 78 81 93 101 79 81 75 79 73 63 59 43 32 91 108 106 134 143 142 167 157 152 148 152 157 152 157 152 156
55 302 114 17 10 341 347 321 36 22 66 80 336 325 355 352 45 187 110 95 112 217 169 123 182 227 285 324 78 91 103 83 357 337 77 94 82 79 78 81 87 85 78 63 53 60 63 63 63 69 74 80 83 83 91 96 101 104 94 86 103 98 114 119 126 114 110 112 113 106 50 67 70 92 85 108 110 119 127 146 150 153 153 149 156 160
99 218 78 96 135 165 215 212 198 105 126 126 1 353 20 31 355 16 118 12 121 322 99 101 108 186 100 102 111 113 100 87 65 5 49 70 91 91 84 85 86 85 88 87 82 77 73 77 81 80 88 105 120 117 108 108 114 113 115 120 130 126 90 77 60 95 108 113 122 135 139 122 91 44 41 73 95 137 148 150 151 150 156 160 164 162
127 129 100 155 146 187 209 203 230 117 66 77 322 48 353 31 27 77 97 82 137 235 64 351 139 128 115 104 116 118 102 105 94 53 82 84 87 89 96 94 89 82 84 87 89 92 86 71 67 68 66 81 83 80 94 114 124 137 133 102 82 76 84 103 110 117 120 108 120 128 133 124 148 162 115 118 131 142 146 154 157 156 163 167 159 164
65 59 357 346 320 266 200 189 191 122 121 145 97 53 48 41 46 56 49 255 148 80 80 179 138 127 141 120 107 102 109 102 110 123 112 96 84 90 86 79 78 78 67 59 54 61 67 66 62 58 55 50 62 69 71 60 61 65 70 92 109 105 102 100 101 107 113 121 130 145 153 150 156 136 128 96 71 69 70 86 123 121 122 129 159 169
119 79 304 43 348 334 313 102 97 89 86 111 114 120 88 67 61 64 334 281 125 151 163 151 130 112 122 128 133 142 145 130 124 101 81 86 89 86 87 84 79 78 84 80 65 52 64 72 67 63 54 49 48 49 47 53 49 47 57 71 77 84 84 85 88 82 84 101 112 114 107 120 119 116 99 86 73 64 51 47 63 102 113 119 124 139
80 66 312 43 63 25 11 355 13 99 98 70 46 38 74 95 99 99 72 57 73 65 96 117 100 76 38 25 67 78 82 95 94 91 87 86 93 94 87 82 72 70 63 70 78 72 66 69 66 60 56 47 45 46 48 49 55 62 56 46 62 76 83 102 101 99 97 101 116 113 99 91 95 107 91 80 76 78 77 52 54 88 97 100 107 103
93 5 54 9 68 13 5 2 329 106 96 77 40 28 16 42 85 92 106 96 84 60 71 90 84 68 6 350 75 83 90 88 80 76 77 81 84 87 85 83 82 72 71 67 73 71 66 66 62 58 54 51 47 46 46 48 49 53 57 52 49 48 34 41 59 57 55 57 64 95 98 93 90 79 77 80 75 57 58 42 45 54 65 64 83 96
40 271 33 42 79 355 2 350 322 88 89 77 34 8 355 351 100 232 110 195 117 126 115 97 74 80 39 22 57 49 74 73 73 71 67 64 63 77 81 71 61 66 57 55 53 49 45 52 53 53 52 51 51 49 48 52 57 57 58 51 46 49 54 63 69 72 65 56 42 45 50 42 69 89 99 92 51 38 58 64 61 68 50 73 93 95
156 100 69 58 62 267 279 318 269 2 47 31 12 343 317 308 118 52 48 61 107 137 133 148 174 88 53 337 86 50 53 60 52 52 71 63 54 61 64 61 60 58 48 46 50 49 43 45 46 42 41 45 44 47 47 62 64 60 59 57 54 58 56 55 56 58 54 49 60 59 64 59 63 70 72 79 90 78 64 53 53 56 53 24 359 45
121 123 145 158 124 206 316 315 340 51 53 49 16 328 277 249 210 97 52 50 19 39 170 122 118 82 65 53 71 78 68 60 62 51 39 68 79 69 61 56 61 62 59 55 51 55 49 55 48 37 29 29 28 35 50 57 66 66 61 59 53 58 56 54 49 50 45 40 36 40 44 47 71 92 88 67 41 28 22 56 58 71 73 18 16 27
106 97 111 118 101 164 4 18 63 58 156 38 347 6 11 44 65 86 68 62 85 92 93 98 105 107 113 112 106 107 97 83 66 59 52 41 49 72 77 68 60 59 60 63 61 54 56 60 64 55 40 22 12 24 50 59 61 67 59 55 57 52 58 55 53 49 47 44 35 31 30 29 27 30 36 51 66 81 79 45 0 349 55 14 287 230
139 110 142 52 129 79 62 98 97 234 209 319 318 21 2 50 26 61 57 30 21 89 113 105 108 115 122 117 102 107 104 106 82 53 46 51 55 64 65 71 72 70 63 65 78 69 64 57 52 56 56 49 27 32 34 51 56 65 61 56 56 53 50 51 49 46 44 44 40 38 33 38 39 34 27 33 39 38 33 37 35 1 359 9 343 342
127 100 90 108 153 127 138 69 89 100 319 353 10 4 25 14 327 15 108 358 25 12 112 119 123 125 120 119 125 126 115 89 74 55 39 47 45 57 67 71 80 81 82 65 67 68 58 61 64 57 68 61 51 46 27 39 57 64 59 53 48 50 47 45 43 38 38 38 35 35 31 30 36 32 30 26 32 30 27 25 18 18 12 208 251 244
32 110 198 104 344 105 122 93 78 50 177 237 228 262 274 226 224 230 110 30 35 82 135 132 135 138 134 138 147 151 141 84 72 60 36 78 68 72 70 69 54 50 77 103 89 99 97 68 77 67 66 66 56 45 43 50 62 64 60 55 48 49 46 44 40 36 35 32 29 33 30 30 32 31 25 25 23 18 15 13 11 4 1 4 332 315
39 64 86 105 126 50 58 117 159 166 233 212 275 275 250 258 240 173 64 31 209 142 156 143 134 151 151 154 168 182 123 96 121 157 158 136 123 113 89 49 31 40 53 55 79 89 81 71 69 68 65 62 57 43 43 46 54 57 55 50 48 48 46 40 34 31 31 27 24 28 30 30 31 30 29 27 18 15 14 11 1 351 354 342 326 316
38 18 22 56 54 61 121 90 120 133 152 276 275 291 285 273 264 96 164 232 164 166 155 164 146 158 168 171 173 170 143 134 155 160 149 138 127 104 82 66 46 42 51 60 57 76 75 71 66 58 57 56 53 46 51 54 58 57 52 46 44 44 41 36 35 32 32 29 27 26 25 25 26 26 25 21 16 13 11 1 6 2 357 354 354 343
3 359 41 91 86 66 88 104 82 12 297 306 288 296 308 295 44 160 217 204 153 146 150 162 152 162 161 155 177 91 30 102 125 136 144 143 120 83 38 57 67 60 59 55 58 66 61 52 52 53 52 50 47 47 50 59 62 58 53 49 47 41 31 27 28 34 35 35 33 30 25 20 19 17 17 14 8 4 7 9 2 356 359 354 351 354
9 52 354 52 27 49 83 89 127 179 262 337 308 305 281 58 141 226 236 312 130 129 133 147 159 172 135 106 107 103 113 119 124 127 127 127 127 114 96 83 65 60 56 61 60 66 64 55 53 49 45 41 44 45 48 54 58 53 49 48 45 37 34 35 33 35 37 37 35 31 27 21 15 17 13 11 10 6 4 359 360 359 358 356 355 353
317 79 6 59 296 31 40 68 48 52 298 350 308 340 13 113 217 157 112 46 88 110 111 99 103 117 111 104 101 109 106 101 107 110 112 111 103 98 92 84 74 68 59 60 62 54 66 65 58 56 50 42 42 41 46 56 55 51 46 44 30 27 31 31 30 32 36 36 35 29 27 21 21 16 14 16 14 18 16 7 5 2 3 2 358 357
325 80 18 29 231 125 59 76 145 293 300 328 30 122 326 294 152 114 97 81 51 79 94 92 75 94 111 113 111 102 105 109 104 105 98 94 97 96 88 82 76 69 67 67 79 79 81 79 69 62 50 44 43 44 51 63 64 58 57 45 26 38 36 32 28 30 33 31 29 22 22 25 24 25 25 25 23 31 27 15 4 1 5 359 3 359
323 133 167 108 341 104 143 129 116 241 330 3 41 72 62 53 80 92 84 83 92 69 77 90 92 86 94 107 102 106 100 99 112 113 108 107 98 96 93 94 96 90 78 80 83 84 84 89 87 76 64 52 53 60 66 75 78 71 67 33 54 52 48 38 32 36 30 22 17 19 20 33 33 29 28 24 37 41 23 11 8 5 353 359 1 1
70 106 114 85 67 80 62 90 148 48 50 52 42 46 60 59 49 71 86 89 64 77 79 93 92 90 86 88 101 89 98 109 100 98 102 103 99 96 96 81 63 65 74 81 81 84 95 90 83 80 71 48 52 65 75 79 88 86 126 110 76 73 67 53 38 35 23 13 10 13 25 34 13 16 16 21 31 52 68 42 9 0 336 353 352 354
278 28 46 100 180 61 77 86 87 103 78 79 70 58 59 61 64 68 75 75 86 83 83 80 88 89 89 88 91 103 103 104 104 106 105 109 112 122 125 122 99 91 94 89 83 79 71 79 76 74 68 60 53 81 95 107 111 131 128 87 84 78 73 60 50 37 28 14 8 2 28 32 18 11 7 5 359 359 358 358 7 357 341 339 337 340
16 47 77 73 56 88 139 157 138 119 88 72 95 95 83 74 70 62 76 82 84 80 85 96 96 87 91 87 89 93 95 104 110 109 110 111 117 115 120 112 103 97 97 103 90 80 74 74 83 68 60 54 43 78 93 92 94 92 89 85 89 86 76 66 54 43 11 4 357 354 6 19 17 19 2 341 348 349 340 336 335 340 323 319 321 329
225 51 107 143 91 68 72 78 99 68 44 31 54 72 93 102 98 84 72 76 77 80 78 67 78 110 103 107 90 87 80 66 97 111 105 102 85 75 101 128 125 124 123 105 102 97 104 101 91 94 67 43 27 73 75 71 75 82 86 84 71 62 51 38 23 7 351 345 348 346 355 3 356 352 348 339 336 325 298 296 306 297 292 276 248 265
52 73 107 87 104 153 169 177 149 102 135 170 128 137 106 106 109 105 100 92 93 91 87 90 70 70 92 96 92 86 90 85 79 86 79 66 62 58 45 67 118 137 136 138 129 128 120 115 111 89 80 45 25 31 66 86 82 86 115 109 111 89 55 37 13 358 339 334 341 336 348 344 342 340 339 333 328 325 318 282 269 265 256 282 294 293
110 178 123 142 154 209 207 181 163 124 126 180 175 179 132 131 115 120 119 117 108 109 110 103 99 82 79 75 96 99 90 87 77 74 66 52 40 40 58 62 53 50 156 143 109 73 74 65 74 91 58 344 1 34 66 102 91 69 357 148 180 114 84 114 6 315 307 326 324 316 313 330 335 333 329 324 322 321 313 311 304 271 267 263 275 286